Home > Time Zones > World Clock > Weather > Japan > Kyoto > Past weeks

Flag for Japan Weather past 2 weeks in Kyoto, Japan

Now
41 °F

Partly cloudy.


Feels Like: 33 °F
Forecast: 32 / 48 °F
Wind: 14 mph from West

Location: Osaka International Airport

Current Time: Dec 22, 2014 at 9:23:46 PM

Latest Report: Dec 22, 2014 at 8:00 PM


Visibility: N/A

Pressure: 30.12 "Hg

Humidity: 53%

Dew point: 25 °F

Location of KyotoLocation

Historic Weather in Kyoto — Graph

°F

Kyoto temperature yesterday

Maximum temperature yesterday: 48 °F (at 11:00 AM)
Minimum temperature yesterday: 37 °F (at 5:00 AM)
Average temperature yesterday: 44 °F

Past Weeks' High & Low Weather Summary

 TemperatureHumidityPressure
High55 °F (Dec 9, 12:00 PM)100% (Dec 11, 6:00 AM)30.51 "Hg (Dec 11, 6:00 AM)
Low30 °F (Dec 14, 6:00 AM)32% (Dec 13, 2:00 PM)29.65 "Hg (Dec 16, 1:00 PM)
Average43 °F61%30.12 "Hg
* Reported Dec 7 8:00 PM — Dec 22 8:00 PM, Kyoto, Weather by CustomWeather, © 2014

Note: Actual official high and low records may vary slightly from our data, if they occured in-between our weather recording intervals... More about our weather records

Advertising

Kyoto weather history for previous 24 hours

 ConditionsComfort  
Time TempWeatherWind HumidityBarometerVisibility
8:00 PM
Dec 22
41 °FPartly cloudy.14 mph53%30.12 "HgN/A
7:00 PM39 °FPassing clouds.9 mph48%30.12 "HgN/A
6:00 PM39 °FPassing clouds.8 mph45%30.09 "HgN/A
5:00 PM41 °FPassing clouds.13 mph39%30.07 "HgN/A
4:00 PM41 °FPassing clouds.9 mph36%30.07 "HgN/A
3:00 PM43 °FPassing clouds.13 mph36%30.07 "HgN/A
2:00 PM43 °FPassing clouds.12 mph34%30.04 "HgN/A
1:00 PM43 °FPassing clouds.13 mph34%30.04 "HgN/A
12:00 PM43 °FPassing clouds.9 mph36%30.07 "HgN/A
11:00 AM41 °FPassing clouds.13 mph39%30.07 "HgN/A
10:00 AM41 °FPassing clouds.13 mph36%30.09 "HgN/A
9:00 AM39 °FPassing clouds.9 mph52%30.09 "HgN/A
8:00 AM36 °FPassing clouds.2 mph65%30.07 "HgN/A
7:00 AM32 °FPassing clouds.3 mph69%30.04 "HgN/A
6:00 AM32 °FPassing clouds.5 mph64%30.04 "HgN/A
5:00 AM36 °FPassing clouds.5 mph56%30.01 "HgN/A
Weather by CustomWeather, © 2014

See weather overviewHow to use our weather pages